Time,TemperatureF,DewpointF,PressureIn,WindDirection,WindDirectionDegrees,WindSpeedMPH,WindSpeedGustMPH,Humidity,HourlyPrecipIn,Conditions,Clouds,dailyrainin,SoftwareType,DateUTC
2013-04-10 00:02:00,56.0,36.0,-100.00,SSE,156,10.0,14.0,46,-99.99,,,-99.99,,2013-04-10 07:02:00,
2013-04-10 00:12:00,56.0,36.0,-100.00,SSE,156,10.0,14.0,46,-99.99,,,-99.99,,2013-04-10 07:12:00,
2013-04-10 01:02:00,54.0,37.0,-100.00,East,79,3.0,7.0,52,-99.99,,,-99.99,,2013-04-10 08:02:00,
2013-04-10 01:12:00,54.0,37.0,-100.00,East,79,3.0,7.0,52,-99.99,,,-99.99,,2013-04-10 08:12:00,
2013-04-10 02:02:00,51.0,38.0,-100.00,NNE,17,3.0,5.0,60,-99.99,,,-99.99,,2013-04-10 09:02:00,
2013-04-10 02:12:00,51.0,38.0,-100.00,NNE,17,3.0,5.0,60,-99.99,,,-99.99,,2013-04-10 09:12:00,
2013-04-10 03:03:00,48.0,39.0,-100.00,NW,309,3.0,3.0,70,-99.99,,,-99.99,,2013-04-10 10:03:00,
2013-04-10 03:12:00,48.0,39.0,-100.00,NW,309,3.0,3.0,70,-99.99,,,-99.99,,2013-04-10 10:12:00,
2013-04-10 04:02:00,48.0,39.0,-100.00,WSW,243,3.0,3.0,70,-99.99,,,-99.99,,2013-04-10 11:02:00,
2013-04-10 04:12:00,48.0,39.0,-100.00,WSW,243,3.0,3.0,70,-99.99,,,-99.99,,2013-04-10 11:12:00,
2013-04-10 05:02:00,49.0,39.0,-100.00,SE,145,3.0,5.0,68,-99.99,,,-99.99,,2013-04-10 12:02:00,
2013-04-10 05:12:00,49.0,39.0,-100.00,SE,145,3.0,5.0,68,-99.99,,,-99.99,,2013-04-10 12:12:00,
2013-04-10 06:02:00,47.0,39.0,-100.00,NNE,19,3.0,5.0,73,-99.99,,,-99.99,,2013-04-10 13:02:00,
2013-04-10 06:12:00,47.0,39.0,-100.00,NNE,19,3.0,5.0,73,-99.99,,,-99.99,,2013-04-10 13:12:00,
2013-04-10 07:02:00,46.0,38.0,-100.00,NE,48,2.0,3.0,73,-99.99,,,-99.99,,2013-04-10 14:02:00,
2013-04-10 07:12:00,46.0,38.0,-100.00,NE,48,2.0,3.0,73,-99.99,,,-99.99,,2013-04-10 14:12:00,
2013-04-10 08:02:00,49.0,37.0,-100.00,SE,137,6.0,10.0,63,-99.99,,,-99.99,,2013-04-10 15:02:00,
2013-04-10 08:12:00,49.0,37.0,-100.00,SE,137,6.0,10.0,63,-99.99,,,-99.99,,2013-04-10 15:12:00,
2013-04-10 09:02:00,48.0,38.0,-100.00,SE,130,3.0,5.0,68,-99.99,,,-99.99,,2013-04-10 16:02:00,
2013-04-10 09:12:00,48.0,38.0,-100.00,SE,130,3.0,5.0,68,-99.99,,,-99.99,,2013-04-10 16:12:00,
2013-04-10 10:02:00,55.0,40.0,-100.00,West,265,6.0,9.0,56,-99.99,,,-99.99,,2013-04-10 17:02:00,
2013-04-10 10:12:00,55.0,40.0,-100.00,West,265,6.0,9.0,56,-99.99,,,-99.99,,2013-04-10 17:12:00,
2013-04-10 11:02:00,57.0,40.0,-100.00,South,180,9.0,16.0,52,-99.99,,,-99.99,,2013-04-10 18:02:00,
2013-04-10 11:12:00,57.0,40.0,-100.00,South,180,9.0,16.0,52,-99.99,,,-99.99,,2013-04-10 18:12:00,
2013-04-10 12:03:00,59.0,42.0,-100.00,South,186,16.0,27.0,53,-99.99,,,-99.99,,2013-04-10 19:03:00,
2013-04-10 12:12:00,59.0,42.0,-100.00,South,186,16.0,27.0,53,-99.99,,,-99.99,,2013-04-10 19:12:00,
2013-04-10 13:02:00,66.0,44.0,-100.00,SW,231,29.0,44.0,44,-99.99,,,-99.99,,2013-04-10 20:02:00,
2013-04-10 13:12:00,66.0,44.0,-100.00,SW,231,29.0,44.0,44,-99.99,,,-99.99,,2013-04-10 20:12:00,
2013-04-10 14:02:00,68.0,41.0,-100.00,WSW,244,30.0,45.0,37,-99.99,,,-99.99,,2013-04-10 21:02:00,
2013-04-10 14:12:00,68.0,41.0,-100.00,WSW,244,30.0,45.0,37,-99.99,,,-99.99,,2013-04-10 21:12:00,
2013-04-10 15:03:00,68.0,38.0,-100.00,WSW,249,23.0,35.0,33,-99.99,,,-99.99,,2013-04-10 22:03:00,
2013-04-10 15:12:00,68.0,38.0,-100.00,WSW,249,23.0,35.0,33,-99.99,,,-99.99,,2013-04-10 22:12:00,
2013-04-10 16:00:00,67.0,32.0,-100.00,NW,310,23.0,35.0,27,-99.99,,,-99.99,,2013-04-10 23:00:00,
2013-04-10 16:02:00,71.0,32.0,-100.00,West,269,30.0,44.0,23,-99.99,,,-99.99,,2013-04-10 23:02:00,
2013-04-10 16:12:00,71.0,32.0,-100.00,West,269,30.0,44.0,23,-99.99,,,-99.99,,2013-04-10 23:12:00,
2013-04-10 18:02:00,65.0,34.0,-100.00,NW,306,23.0,32.0,31,-99.99,,,-99.99,,2013-04-11 01:02:00,
2013-04-10 18:12:00,65.0,34.0,-100.00,NW,306,23.0,32.0,31,-99.99,,,-99.99,,2013-04-11 01:12:00,
2013-04-10 20:02:00,58.0,35.0,-100.00,WNW,303,22.0,33.0,41,-99.99,,,-99.99,,2013-04-11 03:02:00,
2013-04-10 20:12:00,58.0,35.0,-100.00,WNW,303,22.0,33.0,41,-99.99,,,-99.99,,2013-04-11 03:12:00,
2013-04-10 21:03:00,55.0,35.0,-100.00,NW,304,17.0,27.0,46,-99.99,,,-99.99,,2013-04-11 04:03:00,
2013-04-10 21:12:00,55.0,35.0,-100.00,NW,304,17.0,27.0,46,-99.99,,,-99.99,,2013-04-11 04:12:00,
2013-04-10 22:02:00,53.0,33.0,-100.00,WNW,298,15.0,24.0,46,-99.99,,,-99.99,,2013-04-11 05:02:00,
2013-04-10 22:12:00,53.0,33.0,-100.00,WNW,298,15.0,24.0,46,-99.99,,,-99.99,,2013-04-11 05:12:00,
2013-04-10 23:02:00,52.0,30.0,-100.00,WNW,302,16.0,22.0,42,-99.99,,,-99.99,,2013-04-11 06:02:00,
2013-04-10 23:12:00,52.0,30.0,-100.00,WNW,302,16.0,22.0,42,-99.99,,,-99.99,,2013-04-11 06:12:00,